Wisdom Guild ホーム

ショップ情報

登録データ

1,918 件

検索フィルター

カード名

値段

円 ~

在庫

枚 ~

MTG通販ショップ はまっちょ登録済みカード一覧

カード名価格セット言語在庫状態最終更新最終チェック
アズカンタの探索Search for Azcanta1,600XLNJPN3 枚売り場19/03/25 04:1419/03/25 04:14
天才の記念像Memorial to Genius30DOMJPN10 枚売り場19/03/25 04:0619/03/25 04:06
肉儀場の叫びCry of the Carnarium50JPN18 枚売り場19/03/25 03:5319/03/25 03:53
幻惑の旋律Entrancing Melody450XLNJPN9 枚売り場19/03/23 04:1519/03/25 04:16
ヴラスカの侮辱Vraska's Contempt1,000XLNJPN3 枚売り場19/03/23 04:1519/03/25 04:15
血染めのぬかるみBloodstained Mire2,400KTKENG8 枚売り場19/03/21 04:3419/03/25 04:34
溢れかえる岸辺Flooded Strand1,650KTKENGなし売り場19/03/20 04:3419/03/25 04:34
ミシュラのガラクタMishra's Bauble500IMAJPNなし売り場19/03/20 03:5819/03/25 03:58
汚染された三角州Polluted Delta1,800KTKENGなし売り場19/03/19 04:3319/03/25 04:34
穢れた血、ラザケシュRazaketh, the Foulblooded100HOUJPN3 枚売り場19/03/19 04:1819/03/25 04:19
カード名価格セット言語在庫状態リンク最終更新最終チェック
魔学コンパスThaumatic Compass50XLNJPN8 枚売り場19/03/19 04:1319/03/25 04:14
深根の精鋭Deeproot Elite50RIXJPNなし売り場19/03/19 04:1019/03/25 04:10
ヤヴィマヤの化身、ムルタニMultani, Yavimaya's Avatar50DOMJPN1 枚売り場19/03/19 04:0519/03/25 04:05
軍勢の戦親分Legion Warboss400GRNJPN1 枚売り場19/03/19 03:5819/03/25 03:58
スカルガンのヘルカイトSkarrgan Hellkite800RNAJPN2 枚売り場19/03/19 03:5419/03/25 03:54
パラドックス装置Paradox Engine700AERJPNなし売り場19/03/17 04:3119/03/25 04:32
不滅の太陽The Immortal Sun1,200RIXJPNなし売り場19/03/17 04:1019/03/25 04:11
打ち壊すブロントドンThrashing Brontodon120RIXJPN6 枚売り場19/03/17 04:0919/03/25 04:09
イオン化Ionize200GRNJPNなし売り場19/03/17 03:5819/03/25 03:58
破滅を囁くものDoom Whisperer1,600GRNJPNなし売り場19/03/17 03:5719/03/25 03:57
カード名価格セット言語在庫状態リンク最終更新最終チェック
クロールの銛撃ちKraul Harpooner30GRNJPNなし売り場19/03/17 03:5519/03/25 03:56
首席議長ヴァニファールPrime Speaker Vannifar1,500RNAJPNなし売り場19/03/17 03:5419/03/25 03:54
徴税人Tithe Taker200RNAJPNなし売り場19/03/17 03:5419/03/25 03:54
魔性Bedevil300JPN2 枚売り場19/03/17 03:5319/03/25 03:54
アゾリウスの造反者、ラヴィニアLavinia, Azorius Renegade50RNAJPN4 枚売り場19/03/17 03:5319/03/25 03:53
神無き祭殿Godless Shrine750RNAJPNなし売り場19/03/17 03:5319/03/25 03:53
神聖なる泉Hallowed Fountain700RNAJPN5 枚売り場19/03/17 03:5319/03/25 03:53
踏み鳴らされる地Stomping Ground900JPNなし売り場19/03/17 03:5319/03/25 03:53
忘れられた神々の僧侶Priest of Forgotten Gods100JPN1 枚売り場19/03/17 03:5119/03/25 03:51
黎明をもたらす者ライラLyra Dawnbringer1,300DOMJPN2 枚売り場19/03/16 04:0719/03/25 04:07
カード名価格セット言語在庫状態リンク最終更新最終チェック
人質取りHostage Taker650XLNJPN3 枚売り場19/03/14 18:4819/03/25 04:15
ビビアン・リードVivien Reid2,700M19JPN1 枚売り場19/03/14 18:4519/03/25 04:03
ミラーリ予想The Mirari Conjecture50DOMJPN6 枚売り場19/03/14 04:0719/03/25 04:07
一瞬Blink of an Eye20DOMJPN3 枚売り場19/03/14 04:0319/03/25 04:03
模写Quasiduplicate50GRNJPN8 枚売り場19/03/14 03:5819/03/25 03:58
漂流自我Unmoored Ego150GRNJPNなし売り場19/03/14 03:5619/03/25 03:56
滅びDamnation2,300MM3JPNなし売り場19/03/13 04:2719/03/25 04:28
炎鎖のアングラスAngrath, the Flame-Chained1,300RIXJPN4 枚売り場19/03/12 04:1019/03/25 04:10
モックス・アンバーMox Amber1,000DOMJPNなし売り場19/03/12 04:0719/03/25 04:07
氷河の城砦Glacial Fortress550XLNJPNなし売り場19/03/10 04:1419/03/25 04:15
カード名価格セット言語在庫状態リンク最終更新最終チェック
手付かずの領土Unclaimed Territory100XLNJPNなし売り場19/03/10 04:1419/03/25 04:14
レギサウルスの頭目Regisaur Alpha150XLNJPN6 枚売り場19/03/10 04:1419/03/25 04:14
翡翠光のレインジャーJadelight Ranger1,000RIXJPNなし売り場19/03/10 04:1119/03/25 04:11
渇望の時Moment of Craving30RIXJPN16 枚売り場19/03/10 04:0819/03/25 04:08
内陸の湾港Hinterland Harbor500DOMJPN4 枚売り場19/03/10 04:0519/03/25 04:05
森林の墓地Woodland Cemetery450DOMJPNなし売り場19/03/10 04:0519/03/25 04:05
草むした墓Overgrown Tomb650GRNJPN4 枚売り場19/03/10 03:5819/03/25 03:58
絡み合うモウセンゴケGrappling Sundew30GRNJPN8 枚売り場19/03/10 03:5519/03/25 03:56
オルゾフの簒奪者、ケイヤKaya, Orzhov Usurper600RNAJPN2 枚売り場19/03/10 03:5419/03/25 03:54
成長室の守護者Growth-Chamber Guardian500RNAJPN2 枚売り場19/03/10 03:5319/03/25 03:54

免責事項

本システムは、各カードショップ様の了承のもと自動的にシングルカード価格データを収集・解析し提供しております。 実際の販売価格や在庫は変動しますので、この価格で販売されることを保証するものではありません。 また、カードの状態や販売方法などは各カードショップ様によって異なる他、データは自動解析されたものですので、誤記等が存在する可能性もあります。 購入時に各ショップ様のウェブサイトにてよく御確認ください。
特記無き価格情報は、税込価格です。ショップでの表示が税抜のみの場合は、独自に消費税相当額を加算しています。
本システムを利用したことによるいかなる損害も保証致しかねますので、御認識の程宜しく御願い致します。
© 1999-2019 Wisdom Guild, OWLAIR networks, All rights reserved.
管理者連絡先 | 権利表記 (実行時間:0.20 秒)